Cleveland International

Airport
ICAO code: 
KCLE
Summary
ICAO Region: 
NAM
Territory: 
Location: 
Cleveland, Ohio,
Coordinates: 
Aerial View: 
41° 24' 36.502" N, 81° 51' 9.8" W
Airport WX: 
Lake Effect Snow
Metar
Observation
KCLE 191151Z 21013KT 10SM BKN130 OVC250 03/M02 A2976 RMK AO2 SLP101 4/008 T00331017 10033 20000 55005
Station
Cleveland, Cleveland-Hopkins International Airport
Date/Time
2022-01-19 11:51:00
Wind direction
210°
Wind speed
13 kts
Lowest cloud amount
broken clouds
Temperature
3.3°C
Dew point
-1.7°C
Humidity
69%
Weather condition
n/a

Description

Cleveland Hopkins International Airport is a public airport located 14 km southwest of the central business district of Cleveland, a city in Cuyahoga County, Ohio, United States.

Climatology

Humid continental climate (Köppen climate classification Dfa) - characterized by four seasons: cold, windy, snowy winters, mild springs, hot, humid summers, and crisp and relatively short autumns. Precipitation reaches its lowest in January and February and peaks in summer and latter half of spring.

Runways

Designator Length Width Surface Rops
10/28 1834 46 PEM Yes/Yes
06C/24C 2163 46 CON Yes/Yes
06L/24R 2743 46 CON Yes/Yes
06R/24L 2743 46 CON Yes/Yes
Airport map: 
Aerial View: 

Accidents and Serious Incidents at or in the vicinity of KCLE

SKYbrary Partners:

Safety knowledge contributed by: